Weather History for Lander, WY

Change the Weather History Date:

Thursday, February 14, 2013

  Actual Average Record
Temperature  
Mean Temperature 18 °F 25 °F  
Max Temperature 28 °F 36 °F 61 °F (1943)
Min Temperature 7 °F 13 °F -28 °F (1903)
Degree Days  
Heating Degree Days 47 40  
Month to date heating degree days 569 585  
Since 1 July heating degree days 4782 5175  
Cooling Degree Days 0 0  
Month to date cooling degree days 0 0  
Year to date cooling degree days 0 0  
Moisture  
Dew Point 13 °F    
Average Humidity 68    
Maximum Humidity 81    
Minimum Humidity 55    
Precipitation  
Precipitation T in 0.02 in 0.52 in (1967)
Month to date precipitation 0.80 0.25  
Year to date precipitation 1.50 0.66  
Snow  
Snow 0.10 in 0.40 in - ()
Month to date snowfall 15.9 4.8  
Since 1 July snowfall 44.3 48.1  
Snow Depth 5.00 in    
Sea Level Pressure  
Sea Level Pressure 30.28 in    
Wind  
Wind Speed 3 mph (SSW)    
Max Wind Speed 13 mph    
Max Gust Speed 14 mph    
Visibility 8 miles    
Events Snow    
T = Trace of Precipitation, MM = Missing Value Source: NWS Daily Summary

Daily Weather History Graph

Daily Weather History Graph

Search for Another Location

Airport:

Trip Planner

Search our weather history database for the weather conditions in past years. The results will help you decide how hot, cold, wet, or windy it might be!

Date:

Astronomy

Feb. 14, 2013 Rise Set
Actual Time 7:13 AM MST 5:45 PM MST
Civil Twilight 6:43 AM MST 6:14 PM MST
Nautical Twilight 6:10 AM MST 6:47 PM MST
Astronomical Twilight 5:38 AM MST 7:20 PM MST
Moon 9:08 AM MST (2/14) 11:00 PM MST (2/14)
Length of Visible Light 11h 30m
Length of Day
10h 32m
Waxing Crescent, 22% of the Moon is Illuminated
Feb 14
Waxing Crescent
Feb 17
First Quarter
Feb 25
Full
Mar 4
Last Quarter
Mar 11
New

Hourly Weather History & Observations

Time (MST) Temp. Windchill Dew Point Humidity Pressure Visibility Wind Dir Wind Speed Gust Speed Precip Events Conditions
12:53 AM 27.0 °F 17.3 °F 14.0 °F 58% 30.05 in 10.0 mi WSW 10.4 mph - N/A   Clear
1:53 AM 21.9 °F 17.2 °F 12.9 °F 68% 30.06 in 10.0 mi South 3.5 mph - N/A   Clear
2:53 AM 21.9 °F 15.7 °F 12.9 °F 68% 30.08 in 10.0 mi WSW 4.6 mph - N/A   Partly Cloudy
3:53 AM 19.0 °F 13.9 °F 12.0 °F 74% 30.10 in 10.0 mi South 3.5 mph - N/A   Scattered Clouds
4:53 AM 17.1 °F 11.7 °F 10.9 °F 77% 30.15 in 10.0 mi NE 3.5 mph - N/A   Mostly Cloudy
5:53 AM 19.9 °F 12.1 °F 10.9 °F 68% 30.19 in 10.0 mi WNW 5.8 mph - N/A   Partly Cloudy
6:53 AM 18.0 °F 11.1 °F 10.0 °F 71% 30.22 in 10.0 mi SSW 4.6 mph - N/A   Clear
7:53 AM 14.0 °F 6.5 °F 9.0 °F 80% 30.30 in 10.0 mi SSE 4.6 mph - N/A   Overcast
7:58 AM 15.8 °F 8.6 °F 10.4 °F 79% 30.18 in 10.0 mi South 4.6 mph - N/A   Overcast
8:34 AM 19.4 °F - 15.8 °F 86% 30.21 in 7.0 mi Calm Calm - N/A   Overcast
8:53 AM 21.0 °F - 16.0 °F 81% 30.34 in 10.0 mi Calm Calm - N/A   Overcast
9:35 AM 21.2 °F - 15.8 °F 80% 30.24 in 1.8 mi Calm Calm - 0.00 in Snow Light Snow
9:53 AM 21.9 °F - 17.1 °F 82% 30.36 in 2.5 mi Calm Calm - 0.00 in Snow Light Snow
10:22 AM 21.2 °F - 17.6 °F 86% 30.25 in 4.0 mi Calm Calm - 0.00 in   Haze
10:48 AM 21.2 °F - 17.6 °F 86% 30.25 in 2.5 mi Calm Calm - 0.00 in Snow Light Snow
10:53 AM 23.0 °F - 17.1 °F 78% 30.37 in 2.5 mi Calm Calm - 0.00 in Snow Light Snow
11:00 AM 23.0 °F - 17.6 °F 80% 30.26 in 3.0 mi Calm Calm - 0.00 in Snow Light Snow
11:53 AM 24.1 °F 17.0 °F 15.1 °F 69% 30.36 in 10.0 mi ENE 5.8 mph - 0.00 in   Overcast
12:53 PM 25.0 °F - 16.0 °F 69% 30.34 in 10.0 mi Calm Calm - N/A   Overcast
1:53 PM 24.1 °F - 16.0 °F 71% 30.35 in 10.0 mi Calm Calm - N/A   Partly Cloudy
2:53 PM 26.1 °F 20.5 °F 17.1 °F 69% 30.34 in 10.0 mi SE 4.6 mph - N/A   Clear
3:53 PM 26.1 °F - 16.0 °F 66% 30.35 in 10.0 mi Calm Calm - N/A   Clear
4:53 PM 24.1 °F - 15.1 °F 69% 30.35 in 10.0 mi Calm Calm - N/A   Clear
5:53 PM 21.0 °F - 12.0 °F 68% 30.35 in 10.0 mi Calm Calm - N/A   Clear
6:09 PM 21.2 °F - 12.2 °F 68% 30.21 in 10.0 mi Calm Calm - N/A   Mostly Cloudy
6:53 PM 19.0 °F 12.3 °F 12.0 °F 74% 30.41 in 10.0 mi WSW 4.6 mph - N/A   Mostly Cloudy
7:07 PM 19.4 °F 9.5 °F 12.2 °F 74% 30.23 in 10.0 mi SW 8.1 mph - N/A   Scattered Clouds
7:53 PM 19.0 °F - 12.0 °F 74% 30.40 in 10.0 mi Calm Calm - N/A   Clear
8:53 PM 16.0 °F 5.3 °F 10.0 °F 77% 30.38 in 10.0 mi WSW 8.1 mph - N/A   Clear
9:53 PM 14.0 °F - 8.1 °F 77% 30.38 in 10.0 mi Calm Calm - N/A   Clear
10:53 PM 12.0 °F 5.9 °F 7.0 °F 80% 30.38 in 10.0 mi WNW 3.5 mph - N/A   Clear
11:53 PM 8.1 °F - 3.9 °F 83% 30.40 in 10.0 mi Calm Calm - N/A   Clear